EHI
9 5 1 0 0 0 0 0 0 0 0 0 0 0 0 0 0 0 0 0 0 0 0 0 0 0 0 0 0 0 0 0 0 1 1 1 0 0 0 0 0 1 3 5 5 4 3 3 3
6 3 1 0 0 0 0 0 0 0 0 0 0 0 0 0 0 0 0 0 0 0 0 0 0 0 0 0 0 0 0 0 0 0 0 0 0 0 0 0 0 1 2 3 3 3 3 3 3
2 1 0 0 0 0 0 0 0 0 0 0 0 0 0 0 0 0 0 0 0 0 0 0 0 0 0 0 0 0 0 0 0 0 0 0 0 0 0 0 0 0 1 1 1 1 2 2 2
0 0 0 0 0 0 0 0 0 0 0 0 0 0 0 0 0 0 0 0 0 0 0 0 0 0 0 0 0 0 0 0 0 0 0 0 0 0 0 0 0 0 0 0 0 0 1 2 2
0 0 0 0 0 0 0 0 0 0 0 0 0 0 0 0 0 0 0 0 0 0 0 0 0 0 0 0 0 0 0 0 0 0 0 0 0 0 0 0 0 0 0 0 0 0 1 1 2
0 0 0 0 0 0 0 0 0 0 0 0 0 0 0 0 0 1 0 0 0 0 0 0 0 0 0 0 0 0 0 0 0 0 0 0 0 0 0 0 0 0 0 0 0 0 0 1 1
0 0 0 0 0 0 0 0 0 0 0 0 0 0 0 0 0 0 0 0 0 0 0 0 0 0 0 0 0 0 0 0 0 0 0 0 0 0 0 0 0 0 0 0 0 0 0 1 1
0 0 0 0 0 0 0 0 0 0 0 0 0 0 0 0 0 0 0 0 0 0 0 0 0 0 0 0 0 0 0 0 0 0 0 0 0 0 0 0 0 0 0 0 0 0 0 1 2
0 0 0 0 0 0 0 0 0 0 0 0 0 0 0 1 1 0 0 0 0 0 0 0 0 0 0 0 0 0 0 0 0 0 0 0 0 0 0 0 0 0 0 0 0 0 0 1 2
0 0 0 0 0 0 0 0 0 0 0 0 0 0 2 3 2 1 0 0 0 0 0 0 0 0 0 0 0 0 0 0 0 0 0 0 0 0 0 0 0 0 0 0 0 0 0 0 1
0 0 0 0 0 0 0 0 0 0 0 0 0 1 3 5 4 1 0 0 0 0 0 0 0 0 0 0 0 0 0 0 0 0 0 0 0 0 0 0 0 0 0 0 0 0 0 0 0
0 0 0 0 0 0 0 0 0 0 0 0 0 1 3 5 4 1 0 0 0 0 0 0 0 0 0 0 0 0 0 0 0 0 0 0 0 0 0 0 0 0 0 0 0 0 0 0 0
0 0 0 0 0 0 0 0 0 0 0 0 0 0 1 3 2 1 0 0 0 0 0 0 0 0 0 0 0 0 0 0 0 0 0 0 0 0 0 0 0 0 0 0 0 0 0 0 0
0 0 0 0 0 0 0 0 0 0 0 0 0 0 0 1 1 0 0 0 0 0 0 0 0 0 0 0 0 0 0 0 0 0 0 0 0 0 0 0 0 0 0 0 0 0 0 0 0
0 0 0 0 0 0 0 0 0 0 0 0 0 0 0 0 0 0 0 0 0 0 0 1 1 0 0 0 0 0 0 0 0 0 0 0 0 0 0 0 0 0 0 0 0 0 0 0 0
0 0 0 0 0 0 0 0 0 0 0 0 0 0 0 0 0 0 0 0 0 0 0 2 2 1 1 1 0 0 0 0 0 0 0 0 0 0 0 0 0 0 0 0 0 0 0 0 0
0 0 0 0 0 0 0 0 0 0 0 0 0 0 0 0 0 0 0 0 0 0 0 3 5 5 4 3 1 0 0 0 0 0 0 0 0 0 0 0 0 0 0 0 0 0 0 0 0
0 0 0 0 0 0 0 0 0 0 0 0 0 0 0 0 0 0 0 0 0 0 1 6 11 13 10 7 4 2 1 0 0 0 0 0 0 0 0 0 0 0 0 0 0 0 0 0 0
0 0 0 0 0 0 0 0 0 0 0 0 0 0 0 0 0 0 0 0 0 0 4 12 21 26 22 14 8 5 3 1 0 0 0 0 0 0 0 0 0 0 0 0 0 0 0 0 0
0 0 0 0 0 0 0 0 0 0 0 0 0 0 0 0 0 0 0 0 0 1 7 19 34 42 36 23 13 7 3 1 0 0 0 0 0 0 0 0 0 0 0 0 0 0 0 0 0
0 0 0 0 0 0 0 0 0 0 0 0 0 0 0 0 0 0 0 0 0 3 12 28 45 50 42 29 16 7 2 0 0 0 0 0 0 0 0 0 0 0 0 0 0 0 0 0 0
0 0 0 0 0 0 0 0 0 0 0 0 0 0 0 0 0 0 1 3 5 8 18 34 46 47 40 29 16 8 2 0 0 0 0 0 0 0 0 0 0 0 0 0 0 0 0 0 0
0 0 0 0 0 0 0 0 0 0 0 0 0 0 0 0 0 0 2 6 11 14 21 31 38 37 32 24 16 8 3 0 0 0 0 0 0 0 0 0 0 0 0 0 0 0 0 0 0
0 0 0 0 0 0 0 0 0 0 0 0 0 0 0 0 0 0 1 4 10 16 21 24 27 26 21 17 12 6 2 0 0 0 0 0 0 0 0 0 0 0 0 0 0 0 0 0 0
0 0 0 0 0 0 0 0 0 0 0 0 0 0 0 0 0 0 0 2 5 11 17 17 16 14 11 9 7 3 1 0 0 0 0 0 0 0 0 0 0 0 0 0 0 0 0 0 0
0 0 0 0 0 0 0 0 0 0 0 0 0 0 0 0 0 0 0 1 3 6 9 9 7 6 4 3 2 1 0 0 0 0 0 0 0 0 0 0 0 0 0 0 0 0 0 0 0
0 0 0 0 0 0 0 0 0 0 0 0 0 0 0 0 0 0 0 1 1 2 3 3 3 1 0 0 0 0 0 0 0 0 0 0 0 0 0 0 0 0 0 0 0 0 0 0 0
0 0 0 0 0 0 0 0 0 0 0 0 0 0 0 0 0 0 0 0 0 0 1 1 1 0 0 0 0 0 0 0 0 0 0 0 0 0 0 0 0 0 0 0 0 0 0 0 0
0 0 0 0 0 0 0 0 0 0 0 0 0 0 0 0 0 0 0 0 0 0 0 0 0 0 0 0 0 0 0 0 0 0 0 0 0 0 0 0 0 0 0 0 0 0 0 0 0
0 0 0 0 0 0 0 0 0 0 0 0 0 0 0 0 0 0 0 0 0 0 0 0 0 0 0 0 0 0 0 0 0 0 0 0 0 0 0 0 0 0 0 0 0 0 0 0 0
Wind_Speed
3 1 3 3 6 6 2 2 1 1 2 2 2 6 6 3 1 2 2 9 9 10 8 10 12 11 11 10 10 11 11 11 12 12 12 12 11 11 10 9 9 9 8 8 8 8 8 8 7
0 1 3 5 6 3 3 2 1 2 3 4 4 4 4 3 3 5 4 6 10 11 8 9 13 12 11 10 10 10 11 11 12 12 11 11 10 10 9 9 8 8 8 8 8 8 8 8 8
0 1 4 5 4 3 2 1 2 2 3 2 3 4 3 3 4 5 5 10 10 9 7 9 14 12 11 11 10 10 11 11 11 11 11 10 10 9 8 8 7 7 7 7 8 8 8 8 7
2 4 5 5 2 2 3 2 3 5 1 3 4 4 3 2 5 5 10 12 11 8 7 9 14 13 12 11 11 10 10 11 11 11 11 10 9 8 8 7 7 7 7 7 7 7 7 8 7
4 4 6 4 4 4 2 1 4 4 2 2 3 3 2 4 6 11 12 12 11 8 7 8 14 13 12 12 11 11 10 10 10 11 11 10 9 9 8 7 6 6 6 6 6 6 7 7 7
4 5 5 2 6 6 2 0 3 3 3 3 4 3 1 2 6 10 10 9 9 9 8 7 14 14 13 12 11 11 10 10 10 10 10 10 9 9 7 6 6 5 5 5 5 6 6 7 7
4 4 3 1 3 4 2 1 3 4 3 4 5 4 1 2 5 8 8 7 7 7 7 6 7 10 13 13 12 11 11 10 10 10 10 10 9 8 8 6 5 4 4 3 4 6 6 6 6
4 5 3 1 1 3 3 1 1 4 3 4 5 7 5 6 6 7 6 5 6 5 6 5 5 5 6 7 12 12 11 11 11 11 10 10 9 8 8 6 5 4 3 3 4 5 6 6 6
3 5 2 2 2 3 3 2 1 2 5 3 3 6 5 10 10 8 5 4 5 6 5 5 5 5 5 5 9 10 10 10 10 9 11 8 4 3 4 4 5 4 4 3 4 5 7 7 7
4 3 4 3 3 3 3 1 1 3 3 1 1 3 7 12 12 11 9 9 9 9 7 5 6 6 6 6 4 4 4 5 4 4 5 4 3 2 3 3 5 5 3 3 4 6 7 6 4
2 4 3 3 3 2 3 2 1 6 4 6 8 9 12 12 13 13 12 11 11 9 9 8 7 6 6 4 4 3 2 3 4 5 5 4 3 2 2 1 0 1 2 3 4 4 3 3 2
1 2 2 2 1 1 2 3 0 5 7 6 9 14 15 16 16 16 14 12 9 8 10 9 9 6 6 4 4 4 3 3 3 4 5 4 3 2 2 1 1 1 1 1 1 1 2 2 3
0 2 2 3 4 3 3 3 3 4 6 2 7 11 15 17 15 14 12 10 9 10 11 10 10 8 7 5 4 5 4 4 4 4 4 5 3 3 3 2 1 1 1 1 0 0 1 2 2
1 2 2 3 3 3 3 4 1 3 4 2 7 12 13 15 15 11 10 11 11 12 11 10 11 10 8 6 5 4 4 4 4 4 5 5 4 3 3 3 2 2 2 1 1 1 1 2 2
1 2 3 2 3 3 3 5 1 4 3 1 4 7 9 10 10 12 13 13 12 11 11 11 11 10 10 8 7 5 5 4 4 4 5 5 5 4 4 3 3 3 3 2 1 1 2 3 3
3 3 2 4 3 4 2 4 4 5 4 2 3 4 6 8 10 11 11 11 10 10 11 12 12 12 11 9 7 5 5 5 5 4 5 6 6 5 4 3 3 3 3 2 2 2 2 3 3
4 2 2 4 2 2 2 4 5 6 5 4 4 5 6 7 10 11 11 12 11 12 12 13 12 13 12 10 7 6 5 6 5 5 5 6 7 6 5 4 3 3 3 3 3 2 2 3 3
2 2 2 4 3 1 2 5 6 7 6 6 6 6 6 8 12 11 12 12 12 12 12 13 12 11 10 7 5 4 4 5 4 5 6 7 6 7 6 5 4 4 3 3 3 3 2 2 3
3 3 5 6 2 1 4 5 6 6 8 10 9 9 9 10 10 9 10 11 12 13 14 14 13 11 9 7 7 5 5 4 4 5 6 7 7 8 7 5 5 5 5 5 5 4 3 2 3
2 3 5 5 2 1 3 4 2 4 6 7 9 11 12 13 12 9 8 9 12 15 15 14 14 12 11 8 6 4 3 3 3 3 5 6 7 7 8 7 6 6 5 5 5 4 4 2 3
3 4 5 5 2 2 2 4 3 4 4 9 10 10 12 13 13 11 7 7 8 11 13 12 12 11 10 7 4 3 3 2 2 3 4 5 6 6 6 7 6 6 6 6 7 6 7 4 2
5 5 4 3 1 3 1 4 4 6 7 12 15 15 15 15 13 9 6 3 3 5 6 7 8 7 7 7 6 5 5 4 5 3 3 4 5 6 6 6 7 7 6 6 7 6 4 5 4
4 4 2 1 2 1 1 2 5 6 9 13 15 16 16 15 13 9 6 3 3 3 5 6 8 7 6 5 5 4 3 3 1 2 3 3 3 4 5 5 6 6 6 6 7 6 5 4 4
3 4 4 4 3 1 3 3 3 4 8 13 14 15 16 15 13 10 8 6 6 7 7 7 8 6 5 4 4 6 5 5 4 3 3 3 2 3 4 5 5 5 5 6 7 7 8 6 6
6 5 4 4 2 4 1 2 0 3 7 9 13 14 14 13 12 10 9 7 7 9 8 8 7 6 4 3 3 4 5 5 5 4 4 3 3 3 4 4 5 4 5 6 6 7 7 8 8
4 1 2 3 3 3 1 1 1 3 7 8 9 10 12 12 11 10 9 7 7 8 8 7 6 4 3 3 2 2 3 3 3 3 3 3 3 3 3 4 4 4 4 5 5 5 6 6 7
5 3 1 1 2 2 2 2 2 9 13 14 14 14 13 12 11 9 8 7 8 8 8 6 5 4 2 2 2 2 2 2 2 3 2 2 2 2 3 4 4 4 4 5 5 4 5 5 6
3 1 3 2 1 1 2 3 6 14 17 17 16 15 13 11 10 8 6 6 6 7 6 5 5 4 2 2 1 2 2 2 3 3 3 2 2 2 3 3 3 3 3 4 4 3 4 5 4
7 5 3 1 1 1 0 2 6 10 13 14 14 13 12 10 9 8 6 5 6 6 6 6 5 3 1 1 2 3 3 2 3 2 2 1 2 2 3 3 3 3 3 3 4 4 4 5 4
2 3 2 1 2 1 1 2 7 9 11 12 13 14 13 11 8 7 6 6 7 6 6 6 5 3 1 1 3 4 4 4 3 3 2 1 1 1 2 3 3 3 4 4 4 4 4 4 4
Wind_Direction
337 63 99 59 51 49 27 318 271 299 36 31 66 90 98 92 125 153 123 141 136 144 154 155 152 147 144 142 142 142 138 134 131 128 125 123 119 116 113 109 102 96 92 87 83 83 88 96 100
309 135 65 59 76 61 309 297 261 224 144 133 78 76 78 69 81 110 128 146 142 146 148 151 155 151 147 145 145 145 142 138 135 133 131 128 124 120 117 113 108 103 96 89 85 83 84 88 93
216 72 75 67 84 157 236 246 206 122 134 96 72 59 84 113 131 150 154 142 142 145 144 157 157 155 152 149 148 147 145 144 141 139 136 133 129 125 122 118 113 108 99 91 84 80 80 81 83
85 48 53 64 31 235 234 225 168 137 140 60 90 68 52 74 153 151 138 142 144 145 146 163 160 159 157 155 153 151 149 148 146 145 143 140 137 135 131 126 121 115 106 93 82 77 77 76 73
63 73 57 38 331 302 274 217 161 152 139 78 92 90 30 9 111 130 140 148 150 149 154 168 165 164 163 161 159 157 156 153 152 150 149 147 145 143 139 137 131 123 113 97 79 72 72 70 65
58 66 73 16 320 316 312 172 151 134 114 104 107 101 33 94 125 142 147 151 155 156 159 169 171 169 169 168 167 164 163 161 158 155 154 153 151 150 148 145 141 134 118 99 78 67 67 64 61
97 88 104 70 323 326 341 77 157 139 137 162 136 112 112 175 162 146 144 141 148 158 161 169 171 173 175 174 173 171 170 167 163 159 157 157 156 157 156 153 152 144 126 102 81 69 65 60 61
114 100 86 42 345 300 321 335 190 151 161 138 130 145 188 198 161 133 125 131 148 161 167 169 168 166 168 172 178 176 175 170 166 163 162 162 162 162 162 160 165 159 146 116 87 74 69 64 65
85 77 113 211 218 274 318 357 45 116 122 147 173 179 193 149 142 131 127 142 165 177 177 171 170 166 162 168 183 178 177 175 169 168 168 158 140 137 147 162 179 175 154 122 95 80 74 66 56
81 117 206 210 203 247 307 304 186 109 130 166 135 124 131 144 158 165 173 179 186 190 188 179 176 170 166 177 171 159 161 161 152 146 143 127 126 134 141 187 189 180 154 112 90 82 75 67 50
111 171 227 249 231 254 304 312 165 137 201 209 193 168 150 162 174 185 190 190 194 192 190 186 181 175 172 171 158 153 145 143 144 145 138 135 131 127 118 96 14 43 76 58 52 65 69 67 68
128 243 234 280 294 282 290 306 317 185 226 232 195 168 164 175 187 194 197 198 191 186 193 188 184 179 179 174 167 160 155 154 156 156 150 144 144 149 150 151 128 74 64 65 48 62 76 86 85
210 279 277 296 318 294 291 274 265 266 294 259 157 165 179 186 196 202 202 199 191 195 195 190 185 183 179 175 175 172 171 167 165 161 163 161 161 170 174 174 161 154 138 151 276 39 102 122 120
261 276 306 318 323 335 310 294 320 310 331 130 164 183 193 197 199 201 203 202 199 201 197 190 188 186 180 182 181 177 176 169 167 173 176 174 172 175 178 184 182 184 183 188 205 204 166 149 137
323 358 343 350 350 338 335 322 10 326 346 150 201 209 210 214 209 210 210 208 204 201 196 192 191 185 184 186 187 183 180 174 179 183 182 184 182 183 181 187 195 190 179 176 151 121 114 124 122
39 40 339 320 358 344 23 293 328 347 23 341 293 271 247 235 229 227 221 217 208 199 195 196 195 187 188 189 186 182 179 181 186 184 185 192 192 188 183 193 207 179 164 161 146 128 111 116 123
27 14 303 308 347 6 34 280 306 353 8 336 313 294 282 267 251 239 229 223 214 204 197 195 195 189 189 187 183 182 179 188 187 184 190 197 198 193 188 202 209 173 161 165 161 136 136 140 137
263 262 269 276 295 351 297 276 309 351 8 347 331 315 295 278 262 249 233 225 217 207 200 197 196 191 182 174 168 174 184 192 189 189 196 195 199 196 193 202 203 177 165 169 161 144 127 129 136
225 235 258 262 272 286 269 284 317 353 15 5 352 338 317 293 281 270 246 230 217 206 199 196 193 187 175 174 177 181 198 194 195 196 196 196 197 194 195 202 193 184 185 184 164 142 136 125 128
233 257 269 283 314 270 288 291 340 27 28 6 353 344 334 324 314 295 265 236 217 207 201 197 193 185 183 186 177 167 162 181 189 192 199 197 195 192 197 194 193 190 185 179 173 154 146 145 157
272 236 252 263 335 24 338 318 357 352 1 1 358 346 339 332 320 308 287 251 226 210 202 195 188 180 178 163 138 113 103 98 142 189 201 199 191 189 191 193 191 188 183 188 187 175 159 157 174
281 281 263 261 320 293 27 290 313 336 344 358 354 350 343 337 329 322 314 299 233 209 187 172 159 152 147 143 157 169 178 192 201 189 192 191 191 193 193 190 189 189 188 188 188 180 166 148 159
279 321 325 265 183 278 309 212 301 349 353 347 343 343 342 340 337 337 343 356 37 91 111 117 117 119 128 143 165 184 194 203 168 154 176 185 193 202 196 189 186 187 188 187 181 175 174 162 161
341 11 32 42 81 244 243 176 318 1 339 330 335 340 341 341 344 349 2 27 49 63 80 92 104 108 120 149 178 186 190 190 176 178 182 183 185 196 197 189 188 189 187 188 187 183 181 181 178
25 34 2 347 11 247 268 131 53 350 342 332 331 335 339 343 352 0 9 23 47 59 65 76 86 90 102 141 185 194 191 190 189 183 185 185 189 198 202 190 187 190 192 186 180 185 191 189 189
338 73 183 248 246 287 350 151 147 1 343 335 333 333 342 349 354 4 12 27 43 53 57 64 73 80 105 142 164 195 183 182 183 179 178 189 198 205 194 191 193 194 188 182 180 189 196 196 199
353 356 263 203 277 286 317 25 2 352 352 350 348 347 349 348 350 0 13 33 45 51 50 51 64 60 59 97 138 161 165 166 171 165 164 176 186 188 183 183 187 189 185 183 178 191 195 192 198
32 322 25 46 248 258 330 31 357 345 343 341 342 343 341 343 346 354 11 28 42 51 48 41 51 52 41 65 107 122 131 149 146 135 142 151 166 168 163 172 176 177 178 178 179 184 189 192 197
350 5 9 344 247 170 10 39 14 342 336 336 338 338 337 343 348 350 360 26 47 47 50 38 27 33 31 118 117 102 100 97 93 95 104 130 144 158 166 171 172 174 175 174 180 191 183 194 198
2 359 359 356 328 349 99 35 1 347 339 343 343 344 344 348 353 355 6 22 35 34 29 23 5 355 304 150 118 109 102 93 84 78 69 77 120 159 169 167 174 183 182 178 184 195 192 195 201